Willmar, MN

8:29 PM CST on January 19, 2018 (GMT -0600)
Willmar

Weather History for KBDH - April, 2012

Change the Weather History Date:

Tuesday, April 3, 2012

  Actual Average (KBBB) Record (KBBB)
Temperature  
Mean Temperature 55 °F -  
Max Temperature 64 °F 48 °F 69 °F (2005)
Min Temperature 46 °F 28 °F 3 °F (1975)
Degree Days  
Heating Degree Days 10    
Growing Degree Days 5 (Base 50)    
Moisture  
Dew Point 37 °F    
Average Humidity 57    
Maximum Humidity 87    
Minimum Humidity 22    
Precipitation  
Precipitation 0.00 in - - ()
Sea Level Pressure  
Sea Level Pressure 30.08 in    
Wind  
Wind Speed 19 mph (NNE)    
Max Wind Speed 24 mph    
Max Gust Speed 31 mph    
Visibility 10 miles    
Events Thunderstorm    
Averages and records for this station are not official NWS values.
T = Trace of Precipitation, MM = Missing Value Source: NWS Daily Summary

Daily Weather History Graph

Daily Weather History Graph

Search for Another Location

Airport or City:

Trip Planner

Search our weather history database for the weather conditions in past years. The results will help you decide how hot, cold, wet, or windy it might be!

Date:

Astronomy

Apr. 03, 2012 Rise Set
Actual Time 6:56 AM CDT 7:51 PM CDT
Civil Twilight 6:26 AM CDT 8:21 PM CDT
Nautical Twilight 5:50 AM CDT 8:57 PM CDT
Astronomical Twilight 5:13 AM CDT 9:34 PM CDT
Moon 4:28 PM CDT (4/3) 4:54 AM CDT (4/3)
Length of Visible Light 13h 55m
Length of Day
12h 55m
Waxing Gibbous, 87% of the Moon is Illuminated
Apr 3
Waxing Gibbous
Apr 6
Full
Apr 13
Last Quarter
Apr 21
New
Apr 29
First Quarter

Hourly Weather History & Observations

Time (CDT) Temp. Windchill Dew Point Humidity Pressure Visibility Wind Dir Wind Speed Gust Speed Precip Events Conditions
12:15 AM 53.6 °F - 41.0 °F 62% 29.90 in 10.0 mi North 21.9 mph 31.1 mph N/A   Overcast
12:34 AM 53.6 °F - 42.8 °F 67% 29.91 in 10.0 mi North 20.7 mph 29.9 mph N/A Thunderstorm Thunderstorm
12:55 AM 51.8 °F - 42.8 °F 71% 29.92 in 10.0 mi North 23.0 mph 28.8 mph N/A   Overcast
1:14 AM 51.8 °F - 42.8 °F 71% 29.92 in 10.0 mi NNE 24.2 mph 31.1 mph N/A   Overcast
1:35 AM 51.8 °F - 42.8 °F 71% 29.93 in 10.0 mi NNE 21.9 mph 31.1 mph N/A   Overcast
1:55 AM 51.8 °F - 42.8 °F 71% 29.94 in 10.0 mi NNE 18.4 mph 29.9 mph N/A   Overcast
2:15 AM 50.0 °F - 44.6 °F 82% 29.94 in 10.0 mi NNE 16.1 mph - N/A   Overcast
2:35 AM 50.0 °F - 44.6 °F 82% 29.95 in 10.0 mi North 16.1 mph 24.2 mph N/A   Overcast
3:14 AM 48.2 °F - 44.6 °F 87% 29.97 in 10.0 mi NNE 17.3 mph 25.3 mph N/A   Overcast
3:35 AM 48.2 °F - 44.6 °F 87% 29.98 in 10.0 mi North 16.1 mph 20.7 mph N/A   Overcast
3:55 AM 48.2 °F - 44.6 °F 87% 29.98 in 10.0 mi North 19.6 mph 23.0 mph N/A   Overcast
4:15 AM 48.2 °F - 44.6 °F 87% 30.01 in 10.0 mi North 15.0 mph 24.2 mph N/A   Overcast
4:35 AM 48.2 °F - 42.8 °F 82% 30.02 in 10.0 mi North 17.3 mph 26.5 mph N/A   Overcast
4:55 AM 48.2 °F - 42.8 °F 82% 30.03 in 10.0 mi North 18.4 mph 27.6 mph N/A   Overcast
5:15 AM 46.4 °F 38.1 °F 42.8 °F 87% 30.04 in 10.0 mi North 24.2 mph 28.8 mph N/A   Overcast
5:35 AM 46.4 °F 39.5 °F 41.0 °F 81% 30.05 in 10.0 mi North 17.3 mph 28.8 mph N/A   Overcast
5:55 AM 46.4 °F 39.0 °F 39.2 °F 76% 30.06 in 10.0 mi North 19.6 mph 27.6 mph N/A   Overcast
6:15 AM 46.4 °F 38.1 °F 39.2 °F 76% 30.06 in 10.0 mi North 24.2 mph 28.8 mph N/A   Overcast
6:34 AM 46.4 °F 38.7 °F 39.2 °F 76% 30.07 in 10.0 mi North 20.7 mph 27.6 mph N/A   Overcast
6:55 AM 46.4 °F 40.1 °F 39.2 °F 76% 30.09 in 10.0 mi NNE 15.0 mph 26.5 mph N/A   Overcast
7:15 AM 46.4 °F 39.2 °F 39.2 °F 76% 30.09 in 10.0 mi NNE 18.4 mph 24.2 mph N/A   Overcast
7:34 AM 46.4 °F 39.2 °F 39.2 °F 76% 30.11 in 10.0 mi NNE 18.4 mph 23.0 mph N/A   Overcast
7:55 AM 46.4 °F 39.2 °F 39.2 °F 76% 30.11 in 10.0 mi NNE 18.4 mph - N/A   Overcast
8:15 AM 46.4 °F 39.0 °F 41.0 °F 81% 30.12 in 10.0 mi North 19.6 mph 23.0 mph N/A   Overcast
8:34 AM 46.4 °F 39.2 °F 41.0 °F 81% 30.13 in 10.0 mi NNE 18.4 mph 23.0 mph N/A   Overcast
8:55 AM 46.4 °F 39.8 °F 41.0 °F 81% 30.14 in 10.0 mi NNE 16.1 mph - N/A   Overcast
9:15 AM 48.2 °F - 41.0 °F 76% 30.15 in 10.0 mi NNE 16.1 mph 28.8 mph N/A   Mostly Cloudy
9:34 AM 48.2 °F - 41.0 °F 76% 30.15 in 10.0 mi NNE 20.7 mph 26.5 mph N/A   Scattered Clouds
9:55 AM 51.8 °F - 41.0 °F 67% 30.14 in 10.0 mi NNE 24.2 mph 27.6 mph N/A   Scattered Clouds
10:15 AM 51.8 °F - 41.0 °F 67% 30.15 in 10.0 mi NNE 23.0 mph 27.6 mph N/A   Scattered Clouds
10:34 AM 53.6 °F - 41.0 °F 62% 30.16 in 10.0 mi NNE 24.2 mph 29.9 mph N/A   Clear
10:55 AM 53.6 °F - 41.0 °F 62% 30.16 in 10.0 mi NE 16.1 mph 26.5 mph N/A   Clear
11:15 AM 55.4 °F - 39.2 °F 54% 30.16 in 10.0 mi NE 20.7 mph 25.3 mph N/A   Clear
11:35 AM 55.4 °F - 37.4 °F 51% 30.16 in 10.0 mi NE 24.2 mph 28.8 mph N/A   Clear
11:54 AM 57.2 °F - 37.4 °F 48% 30.16 in 10.0 mi NE 16.1 mph 26.5 mph N/A   Clear
12:15 PM 57.2 °F - 37.4 °F 48% 30.15 in 10.0 mi NE 21.9 mph 26.5 mph N/A   Clear
12:35 PM 57.2 °F - 35.6 °F 44% 30.15 in 10.0 mi NE 15.0 mph 25.3 mph N/A   Clear
12:54 PM 59.0 °F - 33.8 °F 39% 30.15 in 10.0 mi NE 17.3 mph 26.5 mph N/A   Clear
1:15 PM 60.8 °F - 33.8 °F 36% 30.15 in 10.0 mi NE 15.0 mph 25.3 mph N/A   Clear
1:35 PM 60.8 °F - 33.8 °F 36% 30.15 in 10.0 mi NE 13.8 mph 20.7 mph N/A   Clear
1:54 PM 60.8 °F - 32.0 °F 34% 30.14 in 10.0 mi NE 16.1 mph 20.7 mph N/A   Clear
2:15 PM 60.8 °F - 30.2 °F 31% 30.13 in 10.0 mi NNE 16.1 mph 24.2 mph N/A   Clear
2:35 PM 62.6 °F - 30.2 °F 30% 30.12 in 10.0 mi NE 17.3 mph 21.9 mph N/A   Clear
2:55 PM 62.6 °F - 30.2 °F 30% 30.11 in 10.0 mi NE 13.8 mph 23.0 mph N/A   Clear
3:15 PM 62.6 °F - 28.4 °F 27% 30.10 in 10.0 mi North 17.3 mph 29.9 mph N/A   Clear
3:35 PM 62.6 °F - 28.4 °F 27% 30.09 in 10.0 mi NNE 15.0 mph 23.0 mph N/A   Clear
3:54 PM 62.6 °F - 28.4 °F 27% 30.10 in 10.0 mi NNE 19.6 mph 27.6 mph N/A   Clear
4:15 PM 62.6 °F - 28.4 °F 27% 30.09 in 10.0 mi NNE 17.3 mph 21.9 mph N/A   Clear
4:35 PM 62.6 °F - 28.4 °F 27% 30.09 in 10.0 mi North 15.0 mph - N/A   Clear
4:54 PM 64.4 °F - 28.4 °F 26% 30.09 in 10.0 mi NNE 15.0 mph 19.6 mph N/A   Clear
5:15 PM 62.6 °F - 28.4 °F 27% 30.09 in 10.0 mi NNE 12.7 mph 23.0 mph N/A   Clear
5:35 PM 62.6 °F - 24.8 °F 24% 30.09 in 10.0 mi NNE 13.8 mph 21.9 mph N/A   Clear
5:54 PM 62.6 °F - 24.8 °F 24% 30.09 in 10.0 mi NE 16.1 mph - N/A   Clear
6:15 PM 62.6 °F - 24.8 °F 24% 30.09 in 10.0 mi NNE 12.7 mph 18.4 mph N/A   Clear
6:35 PM 62.6 °F - 23.0 °F 22% 30.10 in 10.0 mi North 11.5 mph - N/A   Clear
6:55 PM 60.8 °F - 24.8 °F 25% 30.10 in 10.0 mi NNE 8.1 mph - N/A   Clear
7:15 PM 59.0 °F - 24.8 °F 27% 30.10 in 10.0 mi NNE 9.2 mph - N/A   Clear
7:35 PM 57.2 °F - 24.8 °F 29% 30.10 in 10.0 mi NNE 8.1 mph - N/A   Clear
8:15 PM 51.8 °F - 24.8 °F 35% 30.10 in 10.0 mi North 5.8 mph - N/A   Clear
8:35 PM 53.6 °F - 24.8 °F 33% 30.10 in 10.0 mi NNE 5.8 mph - N/A   Clear
8:55 PM 51.8 °F - 26.6 °F 38% 30.10 in 10.0 mi North 5.8 mph - N/A   Clear
9:15 PM 51.8 °F - 26.6 °F 38% 30.12 in 10.0 mi North 5.8 mph - N/A   Clear
9:35 PM 48.2 °F - 28.4 °F 46% 30.12 in 10.0 mi NNE 5.8 mph - N/A   Clear
9:54 PM 48.2 °F - 26.6 °F 43% 30.12 in 10.0 mi NE 4.6 mph - N/A   Clear
10:15 PM 46.4 °F 45.2 °F 26.6 °F 46% 30.12 in 10.0 mi NNE 3.5 mph - N/A   Clear
10:35 PM 46.4 °F 43.5 °F 28.4 °F 50% 30.12 in 10.0 mi NNE 5.8 mph - N/A   Clear
11:15 PM 44.6 °F 39.7 °F 26.6 °F 49% 30.11 in 10.0 mi NNE 9.2 mph - N/A   Clear
11:55 PM 44.6 °F 40.7 °F 28.4 °F 53% 30.10 in 10.0 mi NE 6.9 mph - N/A   Clear